Погода в Донецке

Украина / Донецкая область     48˚00′57″N   37˚48′10″E
темп.,
°C
ветер,
м/с
пор.,
м/с
влажн.,
%
обл.,
%
осадки,
мм/ч
давл.,
гПа
погр.,
м
5 декабря, сб
сб523:00−2˚вюв614630 0.0 1032465
02:00−3˚в613640 0.0 1032456
05:00−3˚в612660 0.0 1032444
08:00−3˚в613600 0.0 1032441
11:00в613430 0.0 1033551
14:00+1˚в612290 0.0 1033667
17:00−1˚в715350 0.0 1033553
20:00−2˚в614400 0.0 1034478
6 декабря, вс
вс623:00−3˚в613370 0.0 1034457
02:00−4˚в613380 0.0 1035453
05:00−5˚в613420 0.0 1034443
08:00−5˚в613450 0.0 1035463
11:00−3˚в611450 0.0 1035538
14:00−2˚в611470 0.0 1034638
17:00−4˚в613560 0.0 1034579
20:00−5˚в715580 0.0 1035563
7 декабря, пн
пн723:00−6˚в715620 0.0 1035565
02:00−6˚в716640 0.0 1034565
05:00−6˚в816620 0.0 1034553
08:00−6˚в818610 0.0 1034557
11:00−3˚в815460 0.0 1033647
14:00−1˚в715390 0.0 1032726
17:00−3˚в816440 0.0 1033623
20:00−4˚в716520 0.0 1033566
8 декабря, вт
вт823:00−5˚в716550 0.0 1032544
02:00−5˚в715550 0.0 1031538
05:00−5˚в817540 0.0 1031568
08:00−5˚вюв816520 0.0 1031515
11:00−2˚вюв715390 0.0 1031579
14:00−1˚в714340 0.0 1030653
17:00−3˚в816430 0.0 1030660
20:00−4˚в715570 0.0 1030582
9 декабря, ср
ср923:00−4˚в716670 0.0 1029573
02:00−4˚в7158122 0.0 1029559
05:00−3˚в7148599 0.1 1028583
08:00−2˚вюв7138399 0.2 1028750
11:00−1˚вюв71279100 0.0 1029711
14:00−1˚вюв61178100 0.0 1029592
17:00−1˚вюв61280100 0.0 1029537
20:00−1˚вюв61280100 0.0 1029540